Beaufort, NC

5:47 AM EST on December 15, 2019 (GMT -0500)
Smith

Weather History for KMRH - November, 2019

Change the Weather History Date:

Friday, November 15, 2019

  Actual Average Record
Temperature  
Mean Temperature 52 °F -  
Max Temperature 57 °F 65 °F 78 °F (1978)
Min Temperature 46 °F 43 °F 22 °F (1969)
Degree Days  
Heating Degree Days 14    
Growing Degree Days 2 (Base 50)    
Moisture  
Dew Point 52 °F    
Average Humidity 98    
Maximum Humidity 100    
Minimum Humidity 90    
Precipitation  
Precipitation 0.98 in - - ()
Sea Level Pressure  
Sea Level Pressure 30.10 in    
Wind  
Wind Speed 10 mph (NNE)    
Max Wind Speed 22 mph    
Max Gust Speed 31 mph    
Visibility 8 miles    
Events Rain    
Averages and records for this station are not official NWS values.
T = Trace of Precipitation, MM = Missing Value Source: NWS Daily Summary

Daily Weather History Graph

Daily Weather History Graph

Search for Another Location

Airport or City:

Astronomy

Nov. 15, 2019 Rise Set
Actual Time 6:40 AM EST 5:01 PM EST
Civil Twilight 6:13 AM EST 5:28 PM EST
Nautical Twilight 5:43 AM EST 5:58 PM EST
Astronomical Twilight 5:13 AM EST 6:28 PM EST
Moon 7:39 PM EST 9:30 AM EST
Length of Visible Light 11h 15m
Length of Day
10h 21m
Waning Gibbous, 90% of the Moon is Illuminated
Nov 15
Waning Gibbous
Nov 19
Last Quarter
Nov 26
New
Dec 4
First Quarter
Dec 12
Full

Hourly Weather History & Observations

Time (EST) Temp. Dew Point Humidity Pressure Visibility Wind Dir Wind Speed Gust Speed Precip Events Conditions
12:58 AM 55.9 °F 53.1 °F 90% 30.19 in 10.0 mi North 3.5 mph - N/A   Overcast
1:58 AM 55.0 °F 54.0 °F 96% 30.18 in 10.0 mi North 4.6 mph - 0.01 in Rain Light Rain
2:58 AM 52.0 °F 51.1 °F 97% 30.18 in 10.0 mi NNW 10.4 mph - 0.00 in Rain Light Rain
3:32 AM 52.0 °F 51.1 °F 97% 30.17 in 8.0 mi North 15.0 mph - 0.01 in Rain Light Rain
3:58 AM 51.1 °F 50.0 °F 96% 30.18 in 5.0 mi North 15.0 mph - 0.05 in Rain Rain
4:41 AM 48.9 °F 48.9 °F 100% 30.17 in 9.0 mi North 9.2 mph - 0.06 in Rain Light Rain
4:58 AM 48.9 °F 48.0 °F 97% 30.18 in 8.0 mi North 9.2 mph - 0.08 in Rain Light Rain
6:33 AM 46.9 °F 46.9 °F 100% 30.16 in 6.0 mi North 9.2 mph - 0.02 in Rain Rain
6:58 AM 46.9 °F 46.9 °F 100% 30.17 in 4.0 mi North 10.4 mph - 0.11 in Rain Rain
7:15 AM 48.0 °F 46.9 °F 96% 30.16 in 2.0 mi NNE 10.4 mph - 0.05 in Rain Rain
7:53 AM 48.2 °F 48.2 °F 100% 30.17 in 5.0 mi NNW 5.8 mph 16.1 mph 0.12 in Rain Light Rain
7:58 AM 48.9 °F 48.0 °F 97% 30.17 in 5.0 mi NNW 9.2 mph - 0.13 in Rain Light Rain
8:58 AM 50.0 °F 48.9 °F 96% 30.16 in 4.0 mi NNE 10.4 mph 18.4 mph 0.04 in Rain Light Rain
9:58 AM 51.1 °F 51.1 °F 100% 30.14 in 9.0 mi NE 9.2 mph - 0.02 in Rain Light Rain
10:29 AM 52.0 °F 52.0 °F 100% 30.13 in 10.0 mi NE 10.4 mph - 0.01 in Rain Light Rain
10:37 AM 53.1 °F 52.0 °F 96% 30.13 in 9.0 mi NE 10.4 mph 18.4 mph 0.02 in Rain Light Rain
10:54 AM 53.6 °F 53.6 °F 100% 30.12 in 10.0 mi NE 11.5 mph - 0.02 in Rain Light Rain
10:58 AM 53.1 °F 53.1 °F 100% 30.12 in 10.0 mi NNE 9.2 mph - 0.03 in Rain Light Rain
11:58 AM 54.0 °F 54.0 °F 100% 30.10 in 10.0 mi NNE 12.7 mph - 0.02 in Rain Light Rain
1:58 PM 55.0 °F 55.0 °F 100% 30.04 in 10.0 mi NNE 13.8 mph 25.3 mph 0.04 in Rain Light Rain
2:10 PM 55.9 °F 55.0 °F 97% 30.04 in 10.0 mi NNE 15.0 mph 23.0 mph 0.01 in Rain Light Rain
2:58 PM 55.9 °F 55.0 °F 97% 30.06 in 8.0 mi North 12.7 mph - 0.06 in Rain Rain
3:58 PM 55.0 °F 54.0 °F 96% 30.03 in 10.0 mi NNE 16.1 mph 24.2 mph 0.05 in Rain Rain
4:58 PM 55.9 °F 55.0 °F 97% 30.02 in 8.0 mi NNE 18.4 mph 26.5 mph 0.08 in Rain Rain
5:58 PM 55.0 °F 55.0 °F 100% 30.00 in 9.0 mi NNE 16.1 mph 23.0 mph 0.11 in Rain Rain
6:58 PM 55.9 °F 55.9 °F 100% 30.00 in 10.0 mi NNE 15.0 mph 21.9 mph 0.05 in Rain Light Rain
7:58 PM 57.0 °F 55.9 °F 96% 29.99 in 10.0 mi NE 16.1 mph 25.3 mph 0.05 in Rain Rain
8:58 PM 57.0 °F 55.9 °F 96% 29.97 in 10.0 mi NNE 16.1 mph 25.3 mph 0.04 in Rain Light Rain
9:58 PM 57.0 °F 57.0 °F 100% 29.96 in 10.0 mi NNE 16.1 mph 23.0 mph 0.00 in   Overcast
11:34 PM 55.9 °F 55.9 °F 100% 29.94 in 10.0 mi North 21.9 mph - 0.01 in Rain Light Rain
11:58 PM 55.0 °F 55.0 °F 100% 29.94 in 4.0 mi NNE 21.9 mph 31.1 mph 0.01 in Rain Light Rain